Regional Weather Roundup
Issued by NWS

Home | Current Version | Previous Version | Text Only | Print | Product List | Glossary Off
Versions: 1 2 3 4 5 6 7 8 9 10 11 12 13 14 15 16 17 18 19 20 21 22 23 24 25 26 27 28 29 30 31 32 33 34 35 36 37 38 39 40 41 42 43 44 45 46 47 48 49 50

000
ASUS43 KDTX 131401
RWRMI
MICHIGAN HOURLY REGIONAL WEATHER ROUNDUP
NATIONAL WEATHER SERVICE DETROIT/PONTIAC MI
900 AM EST WED DEC 13 2017

NOTE: "FAIR" INDICATES FEW OR NO CLOUDS BELOW 12,000 FEET WITH NO
SIGNIFICANT WEATHER AND/OR OBSTRUCTION TO VISIBILITY.

MIZ047>049-052>055-059>063-066>070-074>076-081>083-131500-
SOUTHEAST LOWER MICHIGAN

CITY           SKY/WX    TMP DP  RH WIND       PRES   REMARKS
ADRIAN         CLOUDY    17  11  77 S8        29.77F WCI   7
ANN ARBOR      LGT SNOW  17  14  88 SE9       29.76F VSB 1   WCI   6
BAD AXE        CLOUDY    13   7  76 SE3       29.77F
CARO           CLOUDY    14   9  79 SE3       29.76F
DETROIT CITY   CLOUDY    18  10  71 SW7       29.80F WCI   9
DETROIT        LGT SNOW  19  12  74 S8        29.80F WCI   9
FLINT          LGT SNOW  16  11  80 S8        29.75F VSB 1   WCI   5
GROSSE ILE     CLOUDY    19  13  75 SW8       29.80F WCI   9
HILLSDALE      CLOUDY    18   9  68 S7        29.71F WCI   8
HOWELL         LGT SNOW  16  14  90 SE6       29.73F VSB 1   WCI   8

CITY           SKY/WX    TMP DP  RH WIND       PRES   REMARKS
JACKSON        LGT SNOW  18  10  71 SE8       29.72F WCI   8
LAMBERTVILLE   LGT SNOW  19  11  73 S5        29.80F WCI  12
LANSING        LGT SNOW  17  14  88 SE10      29.72F FOG     WCI   5
LAPEER         CLOUDY    16  10  78 S5        29.76F WCI   9
MASON          LGT SNOW  18  12  78 SE8       29.72F WCI   8
MONROE         FLURRIES  19  13  76 S5        29.79F WCI  12
MT. CLEMENS    MOCLDY    17  10  76 SW6       29.78F WCI   8
PONTIAC        LGT SNOW  15  11  83 S3        29.74F FOG
PORT HOPE        N/A     15   8  73 SW5       29.75F WCI   8
PORT HURON     CLOUDY    12   5  73 CALM      29.79F
TRI CITIES     LGT SNOW  16  14  92 S7        29.75F FOG     WCI   6
MIDLAND        LGT SNOW  17  13  85 S3        29.73F
TROY           CLOUDY    18  11  74 S5        29.80F WCI  11
SAGINAW HB     LGT SNOW  18  12  79 S6        29.75F WCI   9
$$
MIZ043>046-050>051-056>058-064>065-071>073-077>080-131500-
SOUTHWEST LOWER MICHIGAN

CITY           SKY/WX    TMP DP  RH WIND       PRES   REMARKS
BATTLE CREEK   FLURRIES  18  10  71 S10       29.70F WCI   6
BENTON HARBOR  LGT SNOW  21  11  65 SE13      29.64F VSB 1   WCI   9
BIG RAPIDS     LGT SNOW  16  13  87 SE8       29.65F VSB 1   WCI   6
COLDWATER      CLOUDY    19   8  62 S8        29.72F WCI   8
FREMONT        LGT SNOW  18  16  93 SE9       29.63F WCI   7
HOLLAND        LGT SNOW  20  13  74 SE14      29.65F WCI   7
GRAND RAPIDS   LGT SNOW  18  17  96 SE8       29.68F VSB 3/4 WCI   8
IONIA          LGT SNOW  18  14  86 SE10      29.70S WCI   6
KALAMAZOO      CLOUDY    19   9  65 S9        29.68F WCI   8
LUDINGTON      LGT SNOW  18  15  86 SE12      29.62F WCI   6
MARSHALL       LGT SNOW  17  11  76 S7        29.71F WCI   8
MOUNT PLEASANT LGT SNOW  18  13  84 SE7       29.71F VSB 1   WCI   8
MUSKEGON       LGT SNOW  20  15  81 SE18      29.63F VSB 1   WCI   5
SOUTH HAVEN    CLOUDY    23   9  55 S10       29.65F WCI  12
$$
MIZ016>042-131500-
NORTHERN LOWER MICHIGAN

CITY           SKY/WX    TMP DP  RH WIND       PRES   REMARKS
ALPENA         CLOUDY     9   6  88 CALM      29.75F
BEAVER ISLAND  LGT SNOW  16  13  88 E15       29.69S WCI   1
BELLAIRE       FLURRIES  14  10  84 CALM      29.70F
CADILLAC       LGT SNOW  14  11  87 SE7       29.62F WCI   4
CHARLEVOIX     LGT SNOW  14   9  80 E12       29.72S WCI   1
FRANKFORT      LGT SNOW  19  15  86 SE7       29.65F WCI   9
GAYLORD        CLOUDY     8   2  76 VRB7      29.66F WCI  -3
GRAYLING       LGT SNOW  10   5  78 E7        29.68F WCI   0
HARBOR SPRINGS FLURRIES  10   4  76 E9        29.72S WCI  -2
HOUGHTON LAKE  LGT SNOW  12   8  84 SE8       29.68F FOG     WCI   0
MANISTEE       LGT SNOW  18  15  88 E9        29.64F VSB 3/4 WCI   7
OSCODA         CLOUDY    10   3  73 SW3       29.76S
PELLSTON       LGT SNOW  10   7  87 SE9       29.73F FOG     WCI  -3
ROGERS CITY    LGT SNOW  12   8  82 S3        29.75F
TRAVERSE CITY  LGT SNOW  17  12  80 VRB6      29.67F WCI   9
$$
MIZ007>008-015-131500-
EASTERN UPPER MICHIGAN

CITY           SKY/WX    TMP DP  RH WIND       PRES   REMARKS
KINROSS        CLOUDY    -8 -12  83 E10       29.74F WCI -26
MACKINAC ISLAN LGT SNOW  12   8  84 NE9G16    29.72S WCI   0
NEWBERRY       CLOUDY     1   0  94 E7        29.70S WCI -12
S. S. MARIE    PTCLDY    -7 -12  79 E7        29.75F WCI -21
MUNISING         N/A     12   7  80 CALM      29.66F
$$
MIZ004>006-011>014-085-131500-
CENTRAL UPPER MICHIGAN

CITY           SKY/WX    TMP DP  RH WIND       PRES   REMARKS
MANISTIQUE     LGT SNOW  13   8  81 E10       29.65F VSB 3/4 WCI   0
ESCANABA       LGT SNOW  16  13  88 NE8       29.62F FOG     WCI   5
MENOMINEE      SNOW      22  19  89 SE12      29.58F VSB 1/2 WCI  10
SAWYER-GWINN   LGT SNOW  10   7  85 E5        29.59F WCI   2
$$
MIZ001>003-009>011-084-131500-
WESTERN UPPER MICHIGAN

CITY           SKY/WX    TMP DP  RH WIND       PRES   REMARKS
IRON MOUNTAIN  SNOW      12   8  84 E6        29.55S VSB 1/4 WCI   3
HOUGHTON       LGT SNOW  16  11  80 SE13      29.58R WCI   2
COPPER HARBOR    N/A     21  12  68 SE6       29.64S WCI  13
IRONWOOD       LGT SNOW  13  10  88 E9        29.49R VSB 3/4 WCI   1
$$

ABBREVIATIONS USED IN REMARKS
   TC - TEMPERATURE IN CELSIUS
  WCI - WIND CHILL INDEX
   HX - HEAT INDEX
  VSB - VISIBILITY





USA.gov is the U.S. government's official web portal to all federal, state and local government web resources and services.